CZ-6A DEB, 54575

Orbit data source: Space-Track

CZ-6A DEB, 54575 is space debris in SSO originally from a launch on Fri, 11 Nov 2022 UTC launched from the Taiyaun Space Center, China (TSC). Debris objects in space refer to the collection of defunct objects orbiting the Earth. Examples of debris include non-operational satellites, rocket bodies, and fragments generated from explosions, collisions, or faulty payload assembly.

Loading next visibility...
Identifier
54575, 2022-151MB
Orbit
SSO
Country
Flag of CNCN / PRC
Related business
Manufacturer
SAST
Mission
Spacecraft
Bus & Motor
Unknown
Mass
Unknown
Launch date (UTC)
2022-11-11 (3 years ago)
Launch vehicle
Unknown
Launch site
Taiyaun Space Center, China (TSC)
Object type
Payload
Rocket body
Debris
Shape & HBR
Unknown shape, 0.1 m
Radar Cross Section
Small (<0.1 m²)

Expand to show TLE details & history
Last TLE update: 19 hours ago

TLE from 19 hours ago
0 CZ-6A DEB
1 54575U 22151MB  25353.44775986  .00005321  00000-0  91760-3 0  9992
2 54575  98.6452  54.4527 0126807 106.8462 254.6690 14.63759343163726
Epoch: 2025-12-19T10:44Z
TLE epoch observation values (Epoch: 2025-12-19T10:44:46.451Z)
Latitude
-0.00011°
Longitude
164.97039°
Altitude
708.762 km
Speed
7.488 km/s
True Right ascension
03h 37m 48s
True Declination
0° 00' 00"
Sunlit
Object was in full shadow at epoch
Visualization orbit readout
Latitude
Unknown
Longitude
Unknown
Altitude
Unknown
Speed
Unknown
Apparent Right ascension
Unknown
Apparent Declination
Unknown
Sunlit
N/A
Visualization observer readout
Local Sidereal Time
04:49:43
Azimuth
Unknown
Elevation
Unknown
Doppler factor
Unknown
Orbital elements
Apogee altitude
767.637 km
Perigee altitude
588.679 km
Semi-major axis
7,056.295 km
Eccentricity
0.01268
Inclination
98.6452°
RAAN
54.4527°
Arg. of periapsis
106.8462°
True anomaly
253.2736°
Mean anomaly
254.669°
Eccentric anomaly
253.9707°
Mean motion
3.66166 °/min
Orbital period
98.32 mins
BSTAR
0.0009176
Loading maneuver chart data...
Computing Atmospheric mass density...
Loading historical data...
Loading historical data...
Loading historical data...
Loading historical data...
Loading historical data...
Loading historical data...
Loading historical data...

Documentation

Showing up to 5 results
|